Radioactive Concentration measured by Seawater Radiation Monitor near Fukushima Daiichi Nuclear Power Station
Date,Time,Cs137(Bq/L),Cs134(Bq/L),Total β(Bq/L)
2022/06/30,00:00,ND,ND,23
2022/06/30,00:10,ND,ND,25
2022/06/30,00:20,ND,ND,22
2022/06/30,00:30,ND,ND,20
2022/06/30,00:40,0.057,ND,19
2022/06/30,00:50,ND,ND,20
2022/06/30,01:00,ND,ND,17
2022/06/30,01:10,ND,ND,16
2022/06/30,01:20,ND,ND,17
2022/06/30,01:30,ND,ND,20
2022/06/30,01:40,ND,ND,20
2022/06/30,01:50,ND,ND,18
2022/06/30,02:00,0.058,ND,20
2022/06/30,02:10,0.057,ND,19
2022/06/30,02:20,0.073,ND,22
2022/06/30,02:30,0.071,ND,22
2022/06/30,02:40,0.073,ND,21
2022/06/30,02:50,0.048,ND,23
2022/06/30,03:00,ND,ND,22
2022/06/30,03:10,ND,ND,22
2022/06/30,03:20,ND,ND,19
2022/06/30,03:30,ND,ND,20
2022/06/30,03:40,ND,ND,21
2022/06/30,03:50,ND,ND,22
2022/06/30,04:00,ND,ND,20
2022/06/30,04:10,ND,ND,24
2022/06/30,04:20,ND,ND,24
2022/06/30,04:30,ND,ND,22
2022/06/30,04:40,ND,ND,21
2022/06/30,04:50,ND,ND,19
2022/06/30,05:00,ND,ND,20
2022/06/30,05:10,0.073,ND,18
2022/06/30,05:20,0.073,ND,16
2022/06/30,05:30,0.079,ND,17
2022/06/30,05:40,0.091,ND,18
2022/06/30,05:50,0.071,ND,21
2022/06/30,06:00,0.064,ND,21
2022/06/30,06:10,ND,ND,21
2022/06/30,06:20,ND,ND,23
2022/06/30,06:30,ND,ND,21
2022/06/30,06:40,ND,ND,21
2022/06/30,06:50,ND,ND,20
2022/06/30,07:00,ND,ND,21
2022/06/30,07:10,ND,ND,22
2022/06/30,07:20,ND,ND,20
2022/06/30,07:30,ND,ND,23
2022/06/30,07:40,ND,ND,22
2022/06/30,07:50,ND,ND,21
2022/06/30,08:00,0.062,ND,20
2022/06/30,08:10,0.077,ND,21
2022/06/30,08:20,0.076,ND,20
2022/06/30,08:30,0.059,ND,19
2022/06/30,08:40,0.11,ND,21
2022/06/30,08:50,0.12,ND,24
2022/06/30,09:00,0.13,ND,28
2022/06/30,09:10,0.12,ND,25
2022/06/30,09:20,0.13,ND,27
2022/06/30,09:30,0.14,ND,26
2022/06/30,09:40,0.14,ND,24
2022/06/30,09:50,0.15,ND,23
2022/06/30,10:00,0.14,ND,20
2022/06/30,10:10,0.17,ND,21
2022/06/30,10:20,0.082,ND,23
2022/06/30,10:30,0.088,ND,24
2022/06/30,10:40,0.089,ND,24
2022/06/30,10:50,0.073,ND,23
2022/06/30,11:00,0.15,ND,22
2022/06/30,11:10,0.13,ND,23
2022/06/30,11:20,0.11,ND,21
2022/06/30,11:30,0.096,ND,22
2022/06/30,11:40,0.089,ND,22
2022/06/30,11:50,0.099,ND,22
2022/06/30,12:00,0.098,ND,24
2022/06/30,12:10,0.15,ND,24
2022/06/30,12:20,0.14,ND,26
2022/06/30,12:30,0.14,ND,23
2022/06/30,12:40,0.11,ND,21
2022/06/30,12:50,0.095,ND,21
2022/06/30,13:00,0.076,ND,18
2022/06/30,13:10,0.061,ND,16
2022/06/30,13:20,ND,ND,16
2022/06/30,13:30,ND,ND,16
2022/06/30,13:40,ND,ND,18
2022/06/30,13:50,ND,ND,17
2022/06/30,14:00,ND,ND,18
2022/06/30,14:10,ND,ND,20
2022/06/30,14:20,ND,ND,19
2022/06/30,14:30,ND,ND,20
2022/06/30,14:40,ND,ND,20
2022/06/30,14:50,ND,ND,21
2022/06/30,15:00,ND,ND,21
2022/06/30,15:10,ND,ND,18
2022/06/30,15:20,ND,ND,17
2022/06/30,15:30,ND,ND,16
2022/06/30,15:40,0.048,ND,16
2022/06/30,15:50,ND,ND,16
2022/06/30,16:00,ND,ND,13
2022/06/30,16:10,ND,ND,14
2022/06/30,16:20,ND,ND,16
2022/06/30,16:30,ND,ND,17
2022/06/30,16:40,ND,ND,17
2022/06/30,16:50,ND,ND,17
2022/06/30,17:00,ND,ND,22
2022/06/30,17:10,ND,ND,23
2022/06/30,17:20,ND,ND,23
2022/06/30,17:30,ND,ND,24
2022/06/30,17:40,ND,ND,25
2022/06/30,17:50,ND,ND,24
2022/06/30,18:00,ND,ND,21
2022/06/30,18:10,ND,ND,19
2022/06/30,18:20,ND,ND,17
2022/06/30,18:30,ND,ND,17
2022/06/30,18:40,ND,ND,17
2022/06/30,18:50,ND,ND,19
2022/06/30,19:00,ND,ND,18
2022/06/30,19:10,ND,ND,22
2022/06/30,19:20,ND,ND,26
2022/06/30,19:30,ND,ND,26
2022/06/30,19:40,ND,ND,23
2022/06/30,19:50,ND,ND,25
2022/06/30,20:00,ND,ND,27
2022/06/30,20:10,ND,ND,24
2022/06/30,20:20,ND,ND,23
2022/06/30,20:30,ND,ND,21
2022/06/30,20:40,ND,ND,22
2022/06/30,20:50,ND,ND,21
2022/06/30,21:00,ND,ND,21
2022/06/30,21:10,ND,ND,21
2022/06/30,21:20,ND,ND,20
2022/06/30,21:30,ND,ND,21
2022/06/30,21:40,0.052,ND,17
2022/06/30,21:50,ND,ND,19
2022/06/30,22:00,ND,ND,19
2022/06/30,22:10,ND,ND,18
2022/06/30,22:20,ND,ND,18
2022/06/30,22:30,ND,ND,20
2022/06/30,22:40,ND,ND,21
2022/06/30,22:50,ND,ND,19
2022/06/30,23:00,ND,ND,18
2022/06/30,23:10,ND,ND,18
2022/06/30,23:20,ND,ND,18
2022/06/30,23:30,ND,ND,20
2022/06/30,23:40,ND,ND,22
2022/06/30,23:50,ND,ND,21
